User: anonymous   Login
Location: ??????
(41.3164°N, 22.6615°E)
Time: 12:36:09
(UTC+00:00)
Language:

Spot 2 - Orbit

View from above orbital plane
View from above orbital plane
View from above satellite
View from above satellite

Ground track
Ground track

The orbit data is extracted from the following two-line orbital elements,

1 20436U 90005A   22025.85076327  .00000319  00000-0  58695-4 0  9998
2 20436  98.7294  61.0919 0145296  63.0227 298.5729 14.66815164679779
Epoch (UTC): 25 January 2022 20:25:05
Eccentricity: 0.0145296
inclination: 98.7294°
perigee height: 569 km
apogee height: 773 km
right ascension of ascending node: 61.0919°
argument of perigee: 63.0227°
revolutions per day: 14.66815164
mean anomaly at epoch: 298.5729°
orbit number at epoch: 67977

The dashed part of the orbit path shows where the satellite is in the earth's shadow,  

DLR